FW6463 Weather Reports


Display with metric or nautical units.
time (UTC)temp
F
wind
direction
speed
MPH
gust
MPH
rain 1hr
in
rain 24hr
in
rain mn
in
humidity
%
barometer
mb
20260510120522 54 184 2.0 3.0 0.00 0.19 0.00 99 1016.3
20260510115525 53 215 1.0 2.0 0.00 0.19 0.00 99 1016.5
20260510114531 52 308 1.0 3.0 0.00 0.19 0.00 99 1016.1
20260510113518 51 315 1.0 3.0 0.00 0.19 0.00 99 1015.6
20260510112522 50 0.0 0.0 0.00 0.19 0.00 99 1015.6
20260510111526 50 0.0 0.0 0.00 0.19 0.00 99 1015.5
20260510110526 50 0.0 0.0 0.00 0.19 0.00 99 1015.3
20260510105518 50 0.0 0.0 0.00 0.19 0.00 99 1015.2
20260510104523 50 0.0 0.0 0.00 0.19 0.00 99 1015.1
20260510103521 50 176 1.0 2.0 0.00 0.19 0.00 99 1015.0
20260510102521 50 235 1.0 3.0 0.00 0.19 0.00 99 1014.7
20260510101519 50 312 2.0 3.0 0.00 0.19 0.00 99 1014.4
20260510100518 51 172 1.0 2.0 0.00 0.19 0.00 99 1014.2
20260510095516 51 122 0.0 2.0 0.00 0.19 0.00 99 1014.2
20260510094515 52 158 2.0 3.0 0.00 0.19 0.00 99 1014.5
20260510093520 52 183 2.0 3.0 0.00 0.19 0.00 99 1014.5
20260510092525 52 169 3.0 4.0 0.00 0.19 0.00 99 1014.6
20260510091550 52 166 3.0 5.0 0.00 0.19 0.00 99 1014.7
20260510090516 52 158 3.0 5.0 0.00 0.19 0.00 99 1014.9
20260510085541 51 176 3.0 5.0 0.00 0.19 0.00 99 1015.5
20260510084526 51 176 2.0 3.0 0.00 0.19 0.00 99 1015.7
20260510083530 51 270 1.0 4.0 0.00 0.19 0.00 99 1015.2
20260510082517 51 1 4.0 7.0 0.00 0.19 0.00 99 1014.2
20260510081542 50 326 2.0 4.0 0.00 0.19 0.00 99 1013.9
20260510080547 50 293 0.0 2.0 0.00 0.19 0.00 99 1013.7
20260510075532 51 0.0 0.0 0.00 0.19 0.00 99 1013.7
20260510074518 51 164 1.0 3.0 0.00 0.19 0.00 99 1013.7
20260510073544 51 164 2.0 2.0 0.00 0.19 0.00 99 1013.7
20260510072548 51 180 2.0 2.0 0.00 0.19 0.00 99 1013.6
20260510071532 51 180 1.0 2.0 0.00 0.19 0.00 99 1013.6
20260510070519 51 180 1.0 4.0 0.00 0.19 0.00 99 1013.7
20260510065544 50 187 2.0 4.0 0.00 0.19 0.00 99 1013.9
20260510064529 50 169 3.0 5.0 0.00 0.19 0.00 99 1014.2
20260510063515 49 171 2.0 3.0 0.00 0.19 0.00 99 1014.4
20260510062520 48 175 1.0 3.0 0.00 0.19 0.00 99 1014.6
20260510061525 49 0.0 0.0 0.00 0.19 0.00 99 1014.8
20260510060530 49 179 2.0 2.0 0.00 0.19 0.00 99 1015.1
20260510055518 48 176 2.0 3.0 0.00 0.19 0.00 99 1014.9
20260510054521 48 347 4.0 11.0 0.00 0.19 0.00 99 1014.2
20260510053607 46 180 1.0 2.0 0.00 0.19 0.00 99 1014.4
20260510052531 46 163 2.0 3.0 0.00 0.19 0.00 99 1014.5
20260510051518 45 180 1.0 3.0 0.00 0.19 0.00 99 1014.4
20260510050523 45 0.0 0.0 0.00 0.19 0.00 99 1014.2
20260510045527 45 0.0 0.0 0.00 0.19 0.00 99 1014.0
20260510044532 45 0.0 0.0 0.00 0.19 0.00 99 1014.0
20260510043519 45 264 1.0 3.0 0.00 0.19 0.00 99 1013.7
20260510042545 45 0.0 0.0 0.00 0.19 0.00 99 1013.7
20260510041529 46 0.0 0.0 0.00 0.19 0.00 99 1013.7
20260510040515 46 0.0 0.0 0.00 0.19 0.00 99 1013.6
20260510035520 47 0.0 0.0 0.00 0.19 0.19 99 1013.5
20260510034525 47 0.0 0.0 0.00 0.19 0.19 99 1013.5
20260510033529 47 0.0 0.0 0.00 0.19 0.19 99 1013.5
20260510032516 48 0.0 0.0 0.00 0.19 0.19 99 1013.7
20260510031521 48 0.0 0.0 0.00 0.19 0.19 99 1013.7
20260510030526 48 0.0 0.0 0.00 0.19 0.19 99 1013.7
20260510025545 48 0.0 0.0 0.00 0.19 0.19 99 1013.7
20260510024517 48 0.0 0.0 0.00 0.19 0.19 99 1013.7
20260510023521 49 166 1.0 2.0 0.00 0.19 0.19 99 1013.7
20260510022520 49 146 1.0 2.0 0.00 0.19 0.19 99 1013.7
20260510021519 49 169 1.0 2.0 0.00 0.19 0.19 99 1013.6
20260510020539 49 0.0 1.0 0.00 0.19 0.19 99 1013.5
20260510015537 50 0.0 0.0 0.00 0.19 0.19 99 1013.5
20260510014517 50 0.0 0.0 0.00 0.19 0.19 99 1013.2
20260510013532 51 180 0.0 1.0 0.00 0.19 0.19 99 1013.0
20260510012540 51 170 1.0 3.0 0.00 0.19 0.19 99 1013.0
20260510011524 51 0.0 0.0 0.00 0.19 0.19 99 1012.8
20260510010529 52 0.0 0.0 0.00 0.19 0.19 99 1012.7
20260510005515 53 0.0 0.0 0.00 0.19 0.19 99 1012.5
20260510004540 54 0.0 0.0 0.00 0.19 0.19 99 1012.4
20260510003525 55 0.0 0.0 0.00 0.19 0.19 99 1012.4
20260510002530 56 0.0 0.0 0.00 0.19 0.19 96 1012.3
20260510001536 58 0.0 0.0 0.00 0.19 0.19 93 1012.3
20260510000521 59 0.0 0.0 0.00 0.19 0.19 92 1012.3
20260509235527 61 0.0 0.0 0.00 0.19 0.19 89 1012.2
20260509234531 63 0.0 0.0 0.00 0.19 0.19 87 1011.9
20260509233517 65 0.0 0.0 0.00 0.19 0.19 83 1012.0
20260509232543 67 0.0 0.0 0.00 0.19 0.19 80 1012.1
20260509231546 68 270 0.0 1.0 0.00 0.19 0.19 74 1012.2
20260509230531 70 317 1.0 3.0 0.00 0.19 0.19 72 1012.2
20260509225519 71 340 1.0 3.0 0.00 0.19 0.19 70 1012.1
20260509224523 72 312 2.0 3.0 0.00 0.19 0.19 70 1012.1
20260509223548 71 236 1.0 2.0 0.00 0.19 0.19 72 1012.0
20260509222534 71 252 2.0 3.0 0.00 0.19 0.19 70 1012.1
20260509221520 71 251 2.0 3.0 0.00 0.19 0.19 71 1012.1
20260509220524 68 229 3.0 4.0 0.00 0.19 0.19 75 1012.1
20260509215529 63 150 2.0 3.0 0.00 0.19 0.19 83 1012.3
20260509214515 64 318 2.0 3.0 0.00 0.19 0.19 81 1012.3
20260509213521 62 43 2.0 3.0 0.00 0.19 0.19 86 1012.4
20260509212526 61 82 1.0 2.0 0.00 0.19 0.19 86 1012.5
20260509211530 61 74 1.0 2.0 0.00 0.19 0.19 88 1012.6
20260509210517 60 196 1.0 3.0 0.00 0.19 0.19 88 1012.8
20260509205522 61 242 1.0 2.0 0.00 0.19 0.19 86 1013.0
20260509204526 60 259 2.0 3.0 0.00 0.19 0.19 90 1013.0
20260509203551 60 65 1.0 2.0 0.00 0.19 0.19 89 1013.0
20260509202537 60 143 1.0 3.0 0.00 0.19 0.19 90 1013.1
20260509201522 60 87 1.0 2.0 0.00 0.19 0.19 91 1013.2
20260509200527 59 330 2.0 3.0 0.00 0.19 0.19 91 1013.2
20260509195612 59 317 3.0 5.0 0.00 0.19 0.19 91 1013.3
20260509194519 60 312 4.0 6.0 0.00 0.19 0.19 88 1013.0
20260509193603 60 289 2.0 4.0 0.00 0.19 0.19 87 1012.6
20260509192528 60 11 2.0 3.0 0.00 0.19 0.19 86 1012.6
20260509191527 60 327 2.0 3.0 0.00 0.19 0.19 89 1012.8
20260509190519 60 176 1.0 2.0 0.00 0.19 0.19 84 1013.0
20260509185525 61 229 3.0 4.0 0.00 0.19 0.19 84 1013.2
20260509184544 60 189 1.0 2.0 0.00 0.19 0.19 88 1013.5
20260509183516 60 303 2.0 5.0 0.00 0.19 0.19 89 1013.7
20260509182541 59 250 3.0 6.0 0.00 0.19 0.19 88 1013.9
20260509181519 58 303 3.0 5.0 0.00 0.19 0.19 91 1013.8
20260509180518 58 258 4.0 6.0 0.00 0.19 0.19 89 1013.7
20260509175516 58 256 4.0 7.0 0.00 0.19 0.19 89 1013.7
20260509174535 58 232 2.0 4.0 0.00 0.19 0.19 90 1013.5
20260509173526 58 184 2.0 4.0 0.00 0.19 0.19 92 1014.0
20260509172532 57 222 2.0 4.0 0.00 0.19 0.19 94 1014.2
20260509171517 56 208 2.0 4.0 0.00 0.19 0.19 98 1014.4
20260509170523 56 205 2.0 4.0 0.00 0.19 0.19 98 1014.5
20260509165547 56 188 1.0 3.0 0.01 0.19 0.19 99 1014.4
20260509164532 55 201 1.0 3.0 0.01 0.19 0.19 98 1014.6
20260509163519 55 160 3.0 4.0 0.03 0.19 0.19 98 1014.2
20260509162543 55 166 3.0 4.0 0.03 0.19 0.19 99 1014.2
20260509161528 55 222 2.0 3.0 0.05 0.19 0.19 99 1014.2
20260509160535 54 169 2.0 3.0 0.07 0.19 0.19 99 1014.1
20260509155520 54 0.0 0.0 0.08 0.18 0.18 99 1014.0
20260509154524 54 128 1.0 2.0 0.08 0.18 0.18 99 1014.0
20260509153530 54 0.0 0.0 0.08 0.16 0.16 99 1014.5
20260509152537 54 180 1.0 2.0 0.10 0.16 0.16 99 1014.5
20260509151521 53 126 1.0 3.0 0.10 0.14 0.14 99 1014.6
20260509150526 53 173 3.0 5.0 0.09 0.12 0.12 99 1014.9
20260509145551 53 170 2.0 4.0 0.08 0.10 0.10 99 1015.2
20260509144017 54 208 2.0 4.0 0.08 0.09 0.09 99 1014.9
20260509143016 55 194 1.0 3.0 0.06 0.07 0.07 97 1014.7
20260509142016 55 215 1.0 2.0 0.03 0.04 0.04 96 1014.7
20260509141032 56 208 2.0 3.0 0.03 0.04 0.04 93 1014.5
20260509140040 56 252 1.0 2.0 0.01 0.02 0.02 92 1014.5
20260509135024 57 201 2.0 3.0 0.01 0.02 0.02 90 1014.5
20260509134028 57 213 1.0 3.0 0.00 0.01 0.01 89 1014.5
20260509133016 57 196 2.0 4.0 0.00 0.01 0.01 88 1014.5
20260509132020 57 182 3.0 4.0 0.01 0.01 0.01 86 1014.2
20260509131025 57 267 2.0 3.0 0.01 0.01 0.01 86 1014.5
20260509130030 56 242 2.0 3.0 0.01 0.01 0.01 91 1014.5
20260509125017 55 218 2.0 3.0 0.01 0.01 0.01 93 1014.5
20260509124021 54 216 2.0 3.0 0.01 0.01 0.01 95 1014.5
20260509123025 54 230 3.0 4.0 0.01 0.01 0.01 98 1014.5
20260509122031 53 277 2.0 3.0 0.00 0.00 0.00 99 1014.6